User: anonymous   Login
Location: 相模原市立博物館
(35.5593°N, 139.3931°E)
Time: 05:40:09
(UTC+09:00)
Language:

PicSat - Orbit

View from above orbital plane
View from above orbital plane
View from above satellite
View from above satellite

Ground track
Ground track

The orbit data is extracted from the following two-line orbital elements,

1 43131U 18004W   22334.19849765  .00040882  00000-0  81650-3 0  9993
2 43131  97.3612  54.7452 0005591 113.1476 247.0363 15.46699276272092
Epoch (UTC): 30 November 2022 04:45:50
Eccentricity: 0.0005591
inclination: 97.3612°
perigee height: 422 km
apogee height: 430 km
right ascension of ascending node: 54.7452°
argument of perigee: 113.1476°
revolutions per day: 15.46699276
mean anomaly at epoch: 247.0363°
orbit number at epoch: 27209

The dashed part of the orbit path shows where the satellite is in the earth's shadow,  

DLR